TimePDT,TemperatureF,Dew PointF,Humidity,Sea Level PressureIn,VisibilityMPH,Wind Direction,Wind SpeedMPH,Gust SpeedMPH,PrecipitationIn,Events,Conditions,WindDirDegrees,DateUTC
12:56 AM,57.9,46.0,65,29.99,10.0,Calm,Calm,-,N/A,,Clear,0,2013-05-29 07:56:00
1:56 AM,57.0,46.9,69,29.99,10.0,Calm,Calm,-,N/A,,Mostly Cloudy,0,2013-05-29 08:56:00
2:56 AM,57.0,48.0,72,29.98,10.0,Calm,Calm,-,N/A,,Clear,0,2013-05-29 09:56:00
3:56 AM,57.9,48.0,70,29.99,10.0,West,4.6,-,N/A,,Overcast,270,2013-05-29 10:56:00
4:56 AM,57.9,48.0,70,29.98,10.0,Calm,Calm,-,N/A,,Overcast,0,2013-05-29 11:56:00
5:56 AM,59.0,48.9,69,29.97,10.0,SE,3.5,-,N/A,,Overcast,140,2013-05-29 12:56:00
6:56 AM,60.1,48.9,67,29.98,10.0,South,4.6,-,N/A,,Overcast,170,2013-05-29 13:56:00
7:56 AM,61.0,48.9,64,29.99,10.0,SE,4.6,-,N/A,,Overcast,130,2013-05-29 14:56:00
8:56 AM,63.0,50.0,63,30.00,10.0,Calm,Calm,-,N/A,,Overcast,0,2013-05-29 15:56:00
9:56 AM,64.0,52.0,65,30.00,10.0,NNE,6.9,-,N/A,,Overcast,30,2013-05-29 16:56:00
10:56 AM,64.9,53.1,65,29.99,10.0,NNW,9.2,-,N/A,,Overcast,340,2013-05-29 17:56:00
11:56 AM,66.0,54.0,65,30.00,10.0,North,9.2,-,N/A,,Overcast,360,2013-05-29 18:56:00
12:34 PM,68.0,53.6,60,29.98,10.0,North,13.8,-,N/A,,Mostly Cloudy,360,2013-05-29 19:34:00
12:56 PM,69.1,55.0,61,29.98,10.0,North,18.4,-,N/A,,Scattered Clouds,350,2013-05-29 19:56:00
1:56 PM,70.0,53.1,55,29.96,10.0,NNW,18.4,-,N/A,,Clear,340,2013-05-29 20:56:00
2:56 PM,72.0,48.9,44,29.96,10.0,NNW,18.4,25.3,N/A,,Clear,340,2013-05-29 21:56:00
3:56 PM,70.0,48.9,47,29.96,10.0,WNW,11.5,-,N/A,,Clear,300,2013-05-29 22:56:00
4:56 PM,70.0,48.0,46,29.95,10.0,NNW,13.8,-,N/A,,Clear,330,2013-05-29 23:56:00
5:56 PM,68.0,48.0,49,29.95,10.0,NW,11.5,18.4,N/A,,Clear,320,2013-05-30 00:56:00
6:56 PM,68.0,46.0,45,29.94,10.0,WNW,8.1,-,N/A,,Clear,300,2013-05-30 01:56:00
7:56 PM,66.0,46.0,48,29.95,10.0,West,5.8,-,N/A,,Clear,270,2013-05-30 02:56:00
8:56 PM,62.1,44.1,52,29.96,10.0,NW,6.9,-,N/A,,Clear,320,2013-05-30 03:56:00
9:56 PM,60.1,43.0,53,29.99,10.0,NW,11.5,-,N/A,,Clear,310,2013-05-30 04:56:00
10:56 PM,57.0,44.1,62,29.99,10.0,North,9.2,-,N/A,,Clear,360,2013-05-30 05:56:00
11:56 PM,57.0,45.0,64,29.99,10.0,NNW,5.8,-,N/A,,Clear,340,2013-05-30 06:56:00